timestamp,surface_pressure_avg,surface_temp_avg,battery_voltage,lat,long
2022-03-20 00:09:01+00:00,376.3412,1.67,11.7,47.84626,-54.09684
2022-03-20 00:19:01+00:00,374.8297,1.7,11.7,47.84626,-54.09684
2022-03-20 00:29:01+00:00,376.5745,1.7,11.7,47.84626,-54.09684
2022-03-20 00:39:01+00:00,384.4563,1.63,11.7,47.84626,-54.09684
2022-03-20 00:49:01+00:00,383.6246,1.68,11.7,47.84626,-54.09684
2022-03-20 00:59:01+00:00,378.6595,1.66,11.7,47.84626,-54.09684
2022-03-20 01:09:01+00:00,380.5129,1.6,11.7,47.84626,-54.09684
2022-03-20 01:19:00+00:00,382.1063,1.6,11.7,47.84626,-54.09684
2022-03-20 01:29:00+00:00,376.4979,1.67,11.7,47.84626,-54.09684
2022-03-20 01:39:00+00:00,371.6712,1.6,11.7,47.84626,-54.09684
2022-03-20 01:49:00+00:00,372.8629,1.6,11.7,47.84626,-54.09684
2022-03-20 01:59:00+00:00,369.1246,1.6,11.7,47.84626,-54.09684
2022-03-20 02:09:00+00:00,362.4297,1.6,11.7,47.84626,-54.09684
2022-03-20 02:19:01+00:00,357.4547,1.6,11.7,47.84626,-54.09684
2022-03-20 02:29:01+00:00,351.273,1.6,11.7,47.84626,-54.09684
2022-03-20 02:39:01+00:00,342.3363,1.6,11.7,47.84626,-54.09684
2022-03-20 02:49:01+00:00,338.673,1.6,11.7,47.84626,-54.09684
2022-03-20 02:59:01+00:00,333.6696,1.6,11.7,47.84626,-54.09684
2022-03-20 03:09:01+00:00,323.693,1.69,11.7,47.84626,-54.09684
2022-03-20 03:19:01+00:00,313.608,1.72,11.7,47.84626,-54.09684
2022-03-20 03:29:01+00:00,303.383,1.76,11.7,47.84626,-54.09684
2022-03-20 03:39:01+00:00,290.9314,1.76,11.7,47.84626,-54.09684
2022-03-20 03:49:01+00:00,278.4064,1.7,11.7,47.84626,-54.09684
2022-03-20 03:59:01+00:00,274.813,1.6,11.7,47.84626,-54.09684
2022-03-20 04:09:01+00:00,265.1281,1.5,11.7,47.84626,-54.09684
2022-03-20 04:19:00+00:00,249.4114,1.3,11.7,47.84626,-54.09684
2022-03-20 04:29:00+00:00,242.5098,1.29,11.7,47.84626,-54.09684
2022-03-20 04:39:00+00:00,239.4714,1.3,11.7,47.84626,-54.09684
2022-03-20 04:49:00+00:00,229.3081,1.3,11.7,47.84626,-54.09684
2022-03-20 04:59:00+00:00,217.5381,1.3,11.7,47.84626,-54.09684
2022-03-20 05:09:00+00:00,214.7714,1.3,11.7,47.84626,-54.09684
2022-03-20 05:19:00+00:00,207.8281,1.29,11.7,47.84626,-54.09684
2022-03-20 05:29:00+00:00,195.2848,1.27,11.7,47.84626,-54.09684
2022-03-20 05:39:00+00:00,188.4981,1.3,11.7,47.84626,-54.09684
2022-03-20 05:49:00+00:00,185.2298,1.37,11.7,47.84626,-54.09684
2022-03-20 05:59:00+00:00,176.7265,1.3,11.7,47.84626,-54.09684
2022-03-20 06:09:00+00:00,172.2931,1.35,11.7,47.84626,-54.09684
2022-03-20 06:19:00+00:00,176.2031,1.4,11.7,47.84626,-54.09684
2022-03-20 06:29:00+00:00,174.6581,1.4,11.7,47.84626,-54.09684
2022-03-20 06:39:00+00:00,168.9232,1.4,11.7,47.84626,-54.09684
2022-03-20 06:49:00+00:00,167.9115,1.4,11.7,47.84626,-54.09684
2022-03-20 06:59:00+00:00,167.9848,1.47,11.7,47.84626,-54.09684
2022-03-20 07:09:00+00:00,169.9432,1.5,11.7,47.84626,-54.09684
2022-03-20 07:19:00+00:00,171.1948,1.53,11.7,47.84626,-54.09684
2022-03-20 07:29:00+00:00,171.1431,1.59,11.7,47.84626,-54.09684
2022-03-20 07:39:00+00:00,171.6765,1.6,11.7,47.84626,-54.09684
2022-03-20 07:49:00+00:00,173.0732,1.6,11.7,47.84626,-54.09684
2022-03-20 07:59:00+00:00,172.2865,1.6,11.7,47.84626,-54.09684
2022-03-20 08:09:00+00:00,173.0049,1.6,11.7,47.84626,-54.09684
2022-03-20 08:19:00+00:00,186.4964,1.6,11.7,47.84626,-54.09684
2022-03-20 08:29:00+00:00,194.7315,1.6,11.7,47.84626,-54.09684
2022-03-20 08:39:00+00:00,191.4298,1.6,11.7,47.84626,-54.09684
2022-03-20 08:49:00+00:00,196.7931,1.6,11.7,47.84626,-54.09684
2022-03-20 08:59:00+00:00,208.5381,1.6,11.7,47.84626,-54.09684
2022-03-20 09:09:00+00:00,210.2098,1.6,11.7,47.84626,-54.09684
2022-03-20 09:19:00+00:00,208.9881,1.6,11.61,47.84626,-54.09684
2022-03-20 09:29:00+00:00,215.1514,1.6,11.61,47.84626,-54.09684
2022-03-20 09:39:00+00:00,223.6581,1.62,11.61,47.84626,-54.09684
2022-03-20 09:49:00+00:00,226.9431,1.65,11.61,47.84626,-54.09684
2022-03-20 09:59:00+00:00,230.9114,1.65,11.61,47.84626,-54.09684
2022-03-20 10:09:00+00:00,240.0764,1.64,11.61,47.84626,-54.09684
2022-03-20 10:19:00+00:00,244.8464,1.65,11.77,47.84626,-54.09684
2022-03-20 10:29:00+00:00,243.5714,1.64,11.77,47.84626,-54.09684
2022-03-20 10:39:00+00:00,250.9381,1.64,11.77,47.84626,-54.09684
2022-03-20 10:49:00+00:00,265.4197,1.6,11.77,47.84626,-54.09684
2022-03-20 10:59:00+00:00,272.6331,1.6,11.77,47.84626,-54.09684
2022-03-20 11:09:00+00:00,273.928,1.6,11.77,47.84626,-54.09684
2022-03-20 11:19:01+00:00,289.0147,1.6,11.86,47.84626,-54.09684
2022-03-20 11:29:01+00:00,300.7714,1.6,11.86,47.84626,-54.09684
2022-03-20 11:39:01+00:00,308.798,1.6,11.86,47.84626,-54.09684
2022-03-20 11:49:01+00:00,318.3796,1.6,11.86,47.84626,-54.09684
2022-03-20 11:59:01+00:00,324.908,1.6,11.86,47.84626,-54.09684
2022-03-20 12:09:01+00:00,327.8781,1.6,11.86,47.84626,-54.09684
2022-03-20 12:19:01+00:00,332.0346,1.6,11.86,47.84626,-54.09684
2022-03-20 12:29:01+00:00,339.73800000000006,1.6,11.86,47.84626,-54.09684
2022-03-20 12:39:01+00:00,347.0347,1.6,11.86,47.84626,-54.09684
2022-03-20 12:49:01+00:00,349.6562,1.6,11.86,47.84626,-54.09684
2022-03-20 12:59:01+00:00,353.25300000000016,1.6,11.86,47.84626,-54.09684
2022-03-20 13:09:01+00:00,359.5847,1.6,11.86,47.84626,-54.09684
2022-03-20 13:19:00+00:00,359.5946,1.6,11.77,47.84626,-54.09684
2022-03-20 13:29:00+00:00,352.978,1.6,11.77,47.84626,-54.09684
2022-03-20 13:39:00+00:00,350.2029,1.6,11.77,47.84626,-54.09684
2022-03-20 13:49:00+00:00,356.1146,1.6,11.77,47.84626,-54.09684
2022-03-20 13:59:00+00:00,355.3947,1.6,11.77,47.84626,-54.09684
2022-03-20 14:09:00+00:00,348.1629,1.6,11.77,47.84626,-54.09684
2022-03-20 14:19:01+00:00,348.1963,1.6,11.77,47.84626,-54.09684
2022-03-20 14:29:01+00:00,342.7746,1.6,11.77,47.84626,-54.09684
2022-03-20 14:39:01+00:00,333.543,1.6,11.77,47.84626,-54.09684
2022-03-20 14:49:01+00:00,323.008,1.6,11.77,47.84626,-54.09684
2022-03-20 14:59:01+00:00,320.5046,1.6,11.77,47.84626,-54.09684
2022-03-20 15:09:01+00:00,316.1113,1.6,11.77,47.84626,-54.09684
2022-03-20 15:19:00+00:00,303.3063,1.61,11.7,47.84626,-54.09684
2022-03-20 15:29:00+00:00,295.3697,1.68,11.7,47.84626,-54.09684
2022-03-20 15:39:00+00:00,293.6313,1.68,11.7,47.84626,-54.09684
2022-03-20 15:49:00+00:00,287.2114,1.68,11.7,47.84626,-54.09684
2022-03-20 15:59:00+00:00,274.4314,1.68,11.7,47.84626,-54.09684
2022-03-20 16:09:00+00:00,268.4631,1.69,11.7,47.84626,-54.09684
2022-03-20 16:19:00+00:00,267.2697,1.68,11.7,47.84626,-54.09684
2022-03-20 16:29:00+00:00,255.6348,1.69,11.7,47.84626,-54.09684
2022-03-20 16:39:00+00:00,242.6764,1.6,11.7,47.84626,-54.09684
2022-03-20 16:49:00+00:00,233.5547,1.56,11.7,47.84626,-54.09684
2022-03-20 16:59:00+00:00,225.6264,1.6,11.7,47.84626,-54.09684
2022-03-20 17:09:00+00:00,215.9931,1.6,11.7,47.84626,-54.09684
2022-03-20 17:19:01+00:00,212.6598,1.5,11.7,47.84626,-54.09684
2022-03-20 17:29:01+00:00,199.8331,1.4,11.7,47.84626,-54.09684
2022-03-20 17:39:01+00:00,190.9031,1.4,11.7,47.84626,-54.09684
2022-03-20 17:49:01+00:00,191.5865,1.4,11.7,47.84626,-54.09684
2022-03-20 17:59:01+00:00,185.9098,1.4,11.7,47.84626,-54.09684
2022-03-20 18:09:01+00:00,176.7315,1.37,11.7,47.84626,-54.09684
2022-03-20 18:19:00+00:00,176.0065,1.39,11.7,47.84626,-54.09684
2022-03-20 18:29:00+00:00,168.6431,1.4,11.7,47.84626,-54.09684
2022-03-20 18:39:00+00:00,156.7832,1.3,11.7,47.84626,-54.09684
2022-03-20 18:49:00+00:00,158.7332,1.28,11.7,47.84626,-54.09684
2022-03-20 18:59:00+00:00,160.3765,1.3,11.7,47.84626,-54.09684
2022-03-20 19:09:00+00:00,156.9215,1.3,11.7,47.84626,-54.09684
2022-03-20 19:19:00+00:00,159.6382,1.3,11.7,47.84626,-54.09684
2022-03-20 19:29:00+00:00,165.7681,1.3,11.7,47.84626,-54.09684
2022-03-20 19:39:00+00:00,167.1398,1.3,11.7,47.84626,-54.09684
2022-03-20 19:49:00+00:00,167.0714,1.3,11.7,47.84626,-54.09684
2022-03-20 19:59:00+00:00,176.4965,1.26,11.7,47.84626,-54.09684
2022-03-20 20:09:00+00:00,181.6265,1.23,11.7,47.84626,-54.09684
2022-03-20 20:19:01+00:00,184.0231,1.1,11.61,47.84626,-54.09684
2022-03-20 20:29:01+00:00,193.1265,1.1,11.61,47.84626,-54.09684
2022-03-20 20:39:01+00:00,202.3714,1.16,11.61,47.84626,-54.09684
2022-03-20 20:49:01+00:00,200.2264,1.2,11.61,47.84626,-54.09684
2022-03-20 20:59:01+00:00,200.0731,1.15,11.61,47.84626,-54.09684
2022-03-20 21:09:01+00:00,213.2681,1.2,11.61,47.84626,-54.09684
2022-03-20 21:19:01+00:00,221.9231,1.2,11.61,47.84626,-54.09684
2022-03-20 21:29:01+00:00,224.5831,1.21,11.61,47.84626,-54.09684
2022-03-20 21:39:01+00:00,233.8398,1.2,11.61,47.84626,-54.09684
2022-03-20 21:49:01+00:00,245.2181,1.2,11.61,47.84626,-54.09684
2022-03-20 21:59:01+00:00,246.8781,1.27,11.61,47.84626,-54.09684
2022-03-20 22:09:01+00:00,251.1848,1.29,11.61,47.84626,-54.09684
2022-03-20 22:19:00+00:00,263.6097,1.3,11.61,47.84626,-54.09684
2022-03-20 22:29:00+00:00,271.6264,1.26,11.61,47.84626,-54.09684
2022-03-20 22:39:00+00:00,275.348,1.1,11.61,47.84626,-54.09684
2022-03-20 22:49:00+00:00,284.4597,1.22,11.61,47.84626,-54.09684
2022-03-20 22:59:00+00:00,295.8713,1.27,11.61,47.84626,-54.09684
2022-03-20 23:09:00+00:00,297.1196,1.29,11.61,47.84626,-54.09684
2022-03-20 23:19:01+00:00,303.1913,1.21,11.61,47.84626,-54.09684
2022-03-20 23:29:01+00:00,318.6679,1.2,11.61,47.84626,-54.09684
2022-03-20 23:39:01+00:00,331.0796,1.24,11.61,47.84626,-54.09684
2022-03-20 23:49:01+00:00,333.8263,1.2,11.61,47.84626,-54.09684
2022-03-20 23:59:01+00:00,341.0129,1.2,11.61,47.84626,-54.09684
